Volver al catálogo

FENGYUN 1C DEB

ActivoLEO
NORAD 31503·DEBRIS·🇨🇳 China

Lanzado May 10, 1999 desde Taiyuan Satellite Launch Center

Loading…

Próximos Pases (próximas 24 horas)

TLE

EnvejeciendoSource: Space-Track

Época: Sep 10, 2026, 11:55 UTC

1 31503U 99025BWS 26253.49702730  .00001050  00000-0  47966-3 0  9998
2 31503 100.0785 163.9677 0048241 151.8073 208.5728 14.23556521681122

Sigue FENGYUN 1C DEB en tiempo real con AllMySat

Download on the App Store